Home > Weather > Zarqa > Past weeks

Flag for Jordan Weather for the Past 2 Weeks in Zarqa, Jordan

Now
50 °F

Broken clouds.


Feels Like: 43 °F
Forecast: 46 / 49 °F
Wind: 23 mph from West

Location: Amman Airport

Current Time: Feb 6, 2016 at 6:44:42 PM

Latest Report: Feb 6, 2016 at 5:00 PM


Visibility: 2 mi

Pressure: 29.92 "Hg (27.78 "Hg at 615m altitude)

Humidity: 58%

Dew point: 36 °F

Location of ZarqaLocation

Historic Weather in Zarqa — Graph

°F

Zarqa Temperature Yesterday

Maximum temperature yesterday: 64 °F (at 3:00 PM)
Minimum temperature yesterday: 41 °F (at 8:00 AM)
Average temperature yesterday: 53 °F

High & Low Weather Summary for the Past Weeks

 TemperatureHumidityPressure
High64 °F (Feb 4, 2:00 PM)100% (Jan 23, 5:00 PM)30.42 "Hg (Jan 23, 5:00 PM)
Low28 °F (Jan 28, 5:00 AM)16% (Feb 1, 3:00 PM)29.92 "Hg (Feb 6, 2:00 PM)
Average44 °F68%30.18 "Hg
* Reported Jan 22 5:00 PM — Feb 6 5:00 PM, Zarqa, Weather by CustomWeather, © 2016

Note: Actual official high and low records may vary slightly from our data, if they occured in-between our weather recording intervals... More about our weather records

Advertising

Zarqa Weather History for the Previous 24 Hours

 ConditionsComfort  
Time TempWeatherWind HumidityBarometerVisibility
5:00 PM
Sat, Feb 6
50 °FBroken clouds.23 mph58%29.92 "Hg2 mi
4:00 PM50 °FBroken clouds.21 mph67%29.92 "Hg2 mi
3:00 PM52 °FBroken clouds.21 mph62%29.92 "Hg2 mi
2:00 PM54 °FSandstorm.23 mph63%29.92 "Hg2 mi
1:00 PM52 °FBroken clouds.21 mph54%29.95 "Hg2 mi
12:00 PM54 °FBroken clouds.18 mph51%29.95 "Hg3 mi
11:00 AM52 °FBroken clouds.16 mph54%29.98 "Hg3 mi
10:00 AM52 °FBroken clouds.16 mph67%30.01 "Hg3 mi
9:00 AM50 °FBroken clouds.16 mph76%30.01 "Hg3 mi
8:00 AM50 °FBroken clouds.9 mph76%29.98 "Hg3 mi
7:00 AM50 °FBroken clouds.16 mph88%29.98 "Hg2 mi
6:00 AM48 °FPassing clouds.8 mph87%29.98 "Hg2 mi
5:00 AM48 °FHaze.16 mph87%29.98 "Hg2 mi
4:00 AM48 °FHaze.17 mph76%29.98 "Hg3 mi
3:00 AM48 °FPassing clouds.12 mph76%29.98 "Hg3 mi
2:00 AM50 °FPassing clouds.6 mph67%30.01 "Hg3 mi
1:00 AM50 °FHaze.5 mph62%30.01 "Hg3 mi
12:00 AM52 °FHaze.6 mph58%30.01 "Hg3 mi
11:00 PM
Fri, Feb 5
52 °FHaze.7 mph54%30.01 "Hg3 mi
10:00 PM54 °FPassing clouds.8 mph54%30.01 "Hg3 mi
9:00 PM57 °FPassing clouds.5 mph48%30.01 "Hg4 mi
8:00 PM59 °FPassing clouds.5 mph45%30.01 "Hg3 mi
7:00 PM59 °FLight rain. Passing clouds.5 mph45%30.01 "Hg3 mi
6:00 PM61 °FLight rain. Partly cloudy.5 mph39%30.01 "Hg3 mi
Weather by CustomWeather, © 2016

See weather overviewHow to use our weather pages